Regional Weather Roundup
Issued by NWS

Home | Current Version | Previous Version | Text Only | Print | Product List | Glossary On
Versions: 1 2 3 4 5 6 7 8 9 10 11 12 13 14 15 16 17 18 19 20 21 22 23 24 25 26 27 28 29 30 31 32 33 34 35 36 37 38 39 40 41 42 43 44 45 46 47 48 49 50
000
ASUS43 KDMX 191106
RWRIA

WEATHER ROUNDUP FOR IOWA
NATIONAL WEATHER SERVICE DES MOINES IA
500 AM CST FRI JAN 19 2018

NOTE: "FAIR" INDICATES FEW OR NO CLOUDS BELOW 12,000 FEET WITH NO
SIGNIFICANT WEATHER AND/OR OBSTRUCTIONS TO VISIBILITY.

* - THESE STATIONS ARE NOT NWS STATIONS...THUS NOT UNDER NWS
QUALITY CONTROL.  THEY ALSO DO NOT REPORT WEATHER SUCH
AS PRECIPITATION OR FOG.

IAZ001>003-012>014-020>022-031>034-043>046-191200-
   NORTHWEST IOWA

CITY           SKY/WX    TMP DP  RH WIND       PRES   REMARKS
CARROLL *      CLOUDY    32  25  74 SW14      29.76F WCI  22
CHEROKEE *     CLOUDY    25  24  94 S3        29.72F
DENISON *      CLOUDY    30  23  74 S8        29.77F WCI  23
LE MARS *      CLOUDY    27  25  93 S9        29.69F WCI  17
ORANGE CITY *  CLOUDY    27  25  93 S8        29.67F WCI  18
SHELDON *      CLOUDY    27  25  93 S13       29.65F WCI  16
SIOUX CITY     CLOUDY    24  22  91 SE9       29.71F WCI  14
SPENCER        CLOUDY    25  21  85 S6        29.69F WCI  18
STORM LAKE *   CLOUDY    28  25  86 SW15      29.71F WCI  17
$$

IAZ055>058-069>071-079>083-090>094-191200-
   SOUTHWEST IOWA

CITY           SKY/WX    TMP DP  RH WIND       PRES   REMARKS
ATLANTIC *     CLOUDY    32  27  80 SW12      29.81S WCI  23
AUDUBON *      CLOUDY    32  25  74 S8        29.80S WCI  25
CLARINDA *     CLOUDY    30  25  80 S8        29.87S WCI  23
COUNCIL BLFS * CLOUDY    36  27  69 S12       29.79F WCI  27
CRESTON *      CLOUDY    32  25  74 SW13      29.84F WCI  22
HARLAN  *      CLOUDY    27  25  93 S9        29.82F WCI  17
LAMONI         CLOUDY    31  21  66 SW13      29.87R WCI  21
RED OAK *      CLOUDY    30  25  80 S6        29.84S WCI  24
SHENANDOAH *   CLOUDY    34  25  69 SW10      29.85S WCI  26
$$

IAZ047>049-059>061-072>074-084-191200-
   CENTRAL IOWA

CITY           SKY/WX    TMP DP  RH WIND       PRES   REMARKS
AMES           CLOUDY    26  22  84 S5        29.80F WCI  20
ANKENY *       CLOUDY    30  23  74 S5        29.83S WCI  25
BOONE *        CLOUDY    30  25  80 SW8       29.77F WCI  23
CHARITON *     CLOUDY    28  21  74 S10       29.84F WCI  19
DES MOINES     CLOUDY    32  23  69 SW9       29.82S WCI  24
GRINNELL*      CLOUDY    28  22  79 S12       29.84S WCI  17
KNOXVILLE *    CLOUDY    32  21  64 SW15      29.83S WCI  22
MARSHALLTOWN   CLOUDY    29  22  75 SW10      29.80S WCI  20
NEWTON *       CLOUDY    30  23  74 S12       29.83F WCI  21
PELLA *        CLOUDY    32  22  66 SW9       29.86S WCI  24
PERRY *          N/A     25  23  93 S8        29.79F WCI  16
$$

IAZ004>006-015-016-023>025-035-036-191200-
   NORTH CENTRAL IOWA

CITY           SKY/WX    TMP DP  RH WIND       PRES   REMARKS
ALGONA *       CLOUDY    25 N/A N/A S12       29.71F WCI  14
CLARION *      CLOUDY    23  25 100 S12       29.75F WCI  12
ESTHERVILLE    CLOUDY    29  25  85 SW10      29.68F WCI  20
FORT DODGE *   CLOUDY    27  22  81 S12       29.75F WCI  17
MASON CITY     CLOUDY    28  21  75 S7        29.75S WCI  21
FOREST CITY *    N/A     28  23  80 SW5       29.74S WCI  23
WEBSTER CITY * CLOUDY    21  18  86 S8        29.75F WCI  12
IOWA FALLS *     N/A     26  22  85 S8        29.78F WCI  17
$$

IAZ007>011-017>019-026>030-037>042-050>054-066-191200-
   NORTHEAST IOWA

CITY           SKY/WX    TMP DP  RH WIND       PRES   REMARKS
CEDAR RAPIDS     N/A     25  19  78 S10       29.85  WCI  15
CHARLES CITY *   N/A     23  23 100 S9        29.77R WCI  13
CLINTON *        N/A     26  21  81 SW10      29.90S WCI  16
DECORAH *        N/A     27  23  86 SW8       29.76R WCI  18
DUBUQUE          N/A     23  17  78 S13       29.83R WCI  11
MONTICELLO *     N/A     23  19  86 S8        29.85S WCI  14
OELWEIN *        N/A     21  21 100 S10       29.80F WCI  10
WATERLOO         N/A     22  17  81 S3        29.80F
$$

IAZ064-065-067-068-078-191200-
   EAST CENTRAL IOWA

CITY           SKY/WX    TMP DP  RH WIND       PRES   REMARKS
DAVENPORT        N/A     31  20  63 S13       29.91F WCI  21
IOWA CITY        N/A     27  19  72 SE5       29.89S WCI  22
MT. PLEASANT * CLOUDY    30  21  69 SW13      29.92S WCI  20
MUSCATINE *      N/A     30  21  69 S12       29.91S WCI  21
QUAD CITIES      N/A     31  20  63 SW8       29.90F WCI  23
$$

IAZ062-063-075>077-085>089-095>099-191200-
   SOUTHEAST IOWA

CITY           SKY/WX    TMP DP  RH WIND       PRES   REMARKS
BURLINGTON     CLOUDY    30  19  63 S14       29.92F WCI  19
FAIRFIELD *    CLOUDY    30  19  64 S10       29.89R WCI  21
FORT MADISON * CLOUDY    30  19  64 S12       29.93F WCI  21
KEOKUK *       CLOUDY    30  19  64 S9G15     29.94F WCI  22
OSKALOOSA *      N/A     30  22  72 SW10      29.87S WCI  21
OTTUMWA        PTCLDY    35  20  54 SW13      29.87S WCI  26
WASHINGTON *   CLOUDY    28  23  80 S13       29.90R WCI  18
$$

ABBREVIATIONS USED IN REMARKS
   TC - TEMPERATURES IN CELSIUS
  WCI - WIND CHILL INDEX
   HX - HEAT INDEX
  VSB - VISIBILITY
$$




USA.gov is the U.S. government's official web portal to all federal, state and local government web resources and services.